Year,Month,Day,Hour,Minute,Value (Times are PST for windspeed in km/hr)
2006,01,31,00,00,2.30
2006,01,31,00,01,2.50
2006,01,31,00,02,2.50
2006,01,31,00,03,2.10
2006,01,31,00,04,3.20
2006,01,31,00,05,5.20
2006,01,31,00,06,5.20
2006,01,31,00,07,3.50
2006,01,31,00,08,3.40
2006,01,31,00,09,1.90
2006,01,31,00,10,2.40
2006,01,31,00,11,2.60
2006,01,31,00,12,2.90
2006,01,31,00,13,2.50
2006,01,31,00,14,2.80
2006,01,31,00,15,2.60
2006,01,31,00,16,3.70
2006,01,31,00,17,4.80
2006,01,31,00,18,4.70
2006,01,31,00,19,4.20
2006,01,31,00,20,2.50
2006,01,31,00,21,7.90
2006,01,31,00,22,3.30
2006,01,31,00,23,3.30
2006,01,31,00,24,3.20
2006,01,31,00,25,3.20
2006,01,31,00,26,3.20
2006,01,31,00,27,3.20
2006,01,31,00,28,3.20
2006,01,31,00,29,3.10
2006,01,31,00,30,2.80
2006,01,31,00,31,1.40
2006,01,31,00,32,1.00
2006,01,31,00,33,2.00
2006,01,31,00,34,2.00
2006,01,31,00,35,2.30
2006,01,31,00,36,1.80
2006,01,31,00,37,0.20
2006,01,31,00,38,1.50
2006,01,31,00,39,3.10
2006,01,31,00,40,0.70
2006,01,31,00,41,1.00
2006,01,31,00,42,1.70
2006,01,31,00,43,4.30
2006,01,31,00,44,1.30
2006,01,31,00,45,0.70
2006,01,31,00,46,0.50
2006,01,31,00,47,1.20
2006,01,31,00,48,0.60
2006,01,31,00,49,1.10
2006,01,31,00,50,0.00
2006,01,31,00,51,0.30
2006,01,31,00,52,3.90
2006,01,31,00,53,1.50
2006,01,31,00,54,2.80
2006,01,31,00,55,1.90
2006,01,31,00,56,2.30
2006,01,31,00,57,2.80
2006,01,31,00,58,3.20
2006,01,31,00,59,3.30
2006,01,31,01,00,2.30
2006,01,31,01,01,1.90
2006,01,31,01,02,3.60
2006,01,31,01,03,2.40
2006,01,31,01,04,2.80
2006,01,31,01,05,2.70
2006,01,31,01,06,3.90
2006,01,31,01,07,3.50
2006,01,31,01,08,3.30
2006,01,31,01,09,3.80
2006,01,31,01,10,5.10
2006,01,31,01,11,3.70
2006,01,31,01,12,3.80
2006,01,31,01,13,5.90
2006,01,31,01,14,2.70
2006,01,31,01,15,2.70
2006,01,31,01,16,5.30
2006,01,31,01,17,1.70
2006,01,31,01,18,1.20
2006,01,31,01,19,3.20
2006,01,31,01,20,1.50
2006,01,31,01,21,1.70
2006,01,31,01,22,1.20
2006,01,31,01,23,2.10
2006,01,31,01,24,1.50
2006,01,31,01,25,1.50
2006,01,31,01,26,2.60
2006,01,31,01,27,3.00
2006,01,31,01,28,1.70
2006,01,31,01,29,2.60
2006,01,31,01,30,4.00
2006,01,31,01,31,1.80
2006,01,31,01,32,0.80
2006,01,31,01,33,2.80
2006,01,31,01,34,4.10
2006,01,31,01,35,2.60
2006,01,31,01,36,2.50
2006,01,31,01,37,3.00
2006,01,31,01,38,3.50
2006,01,31,01,39,4.00
2006,01,31,01,40,3.00
2006,01,31,01,41,5.20
2006,01,31,01,42,3.40
2006,01,31,01,43,3.10
2006,01,31,01,44,3.40
2006,01,31,01,45,2.40
2006,01,31,01,46,2.10
2006,01,31,01,47,5.20
2006,01,31,01,48,4.50
2006,01,31,01,49,5.10
2006,01,31,01,50,3.50
2006,01,31,01,51,3.90
2006,01,31,01,52,3.10
2006,01,31,01,53,4.30
2006,01,31,01,54,4.20
2006,01,31,01,55,4.90
2006,01,31,01,56,5.70
2006,01,31,01,57,4.40
2006,01,31,01,58,3.40
2006,01,31,01,59,4.60
2006,01,31,02,00,6.10
2006,01,31,02,01,6.20
2006,01,31,02,02,3.10
2006,01,31,02,03,4.00
2006,01,31,02,04,6.80
2006,01,31,02,05,5.10
2006,01,31,02,06,5.50
2006,01,31,02,07,5.10
2006,01,31,02,08,2.50
2006,01,31,02,09,2.50
2006,01,31,02,10,5.80
2006,01,31,02,11,7.60
2006,01,31,02,12,1.90
2006,01,31,02,13,2.20
2006,01,31,02,14,4.30
2006,01,31,02,15,5.00
2006,01,31,02,16,3.40
2006,01,31,02,17,2.30
2006,01,31,02,18,3.20
2006,01,31,02,19,3.30
2006,01,31,02,20,6.60
2006,01,31,02,21,2.90
2006,01,31,02,22,3.00
2006,01,31,02,23,2.30
2006,01,31,02,24,2.70
2006,01,31,02,25,3.20
2006,01,31,02,26,2.50
2006,01,31,02,27,4.30
2006,01,31,02,28,4.70
2006,01,31,02,29,2.70
2006,01,31,02,30,2.30
2006,01,31,02,31,3.80
2006,01,31,02,32,4.40
2006,01,31,02,33,4.60
2006,01,31,02,34,4.80
2006,01,31,02,35,5.10
2006,01,31,02,36,6.90
2006,01,31,02,37,3.90
2006,01,31,02,38,6.30
2006,01,31,02,39,6.40
2006,01,31,02,40,5.90
2006,01,31,02,41,5.00
2006,01,31,02,42,4.50
2006,01,31,02,43,3.80
2006,01,31,02,44,5.50
2006,01,31,02,45,2.70
2006,01,31,02,46,3.90
2006,01,31,02,47,4.00
2006,01,31,02,48,5.70
2006,01,31,02,49,5.60
2006,01,31,02,50,4.70
2006,01,31,02,51,3.60
2006,01,31,02,52,4.50
2006,01,31,02,53,5.30
2006,01,31,02,54,5.10
2006,01,31,02,55,4.70
2006,01,31,02,56,6.90
2006,01,31,02,57,4.90
2006,01,31,02,58,5.20
2006,01,31,02,59,5.90
2006,01,31,03,00,5.70
2006,01,31,03,01,5.70
2006,01,31,03,02,5.30
2006,01,31,03,03,6.00
2006,01,31,03,04,5.60
2006,01,31,03,05,4.40
2006,01,31,03,06,3.90
2006,01,31,03,07,4.30
2006,01,31,03,08,4.80
2006,01,31,03,09,5.60
2006,01,31,03,10,4.50
2006,01,31,03,11,5.60
2006,01,31,03,12,7.60
2006,01,31,03,13,5.30
2006,01,31,03,14,4.80
2006,01,31,03,15,4.80
2006,01,31,03,16,4.80
2006,01,31,03,17,5.20
2006,01,31,03,18,6.70
2006,01,31,03,19,6.80
2006,01,31,03,20,6.30
2006,01,31,03,21,7.80
2006,01,31,03,22,5.60
2006,01,31,03,23,7.20
2006,01,31,03,24,4.10
2006,01,31,03,25,3.20
2006,01,31,03,26,3.00
2006,01,31,03,27,3.70
2006,01,31,03,28,4.60
2006,01,31,03,29,5.60
2006,01,31,03,30,7.20
2006,01,31,03,31,3.90
2006,01,31,03,32,4.20
2006,01,31,03,33,3.90
2006,01,31,03,34,2.90
2006,01,31,03,35,2.40
2006,01,31,03,36,2.40
2006,01,31,03,37,3.40
2006,01,31,03,38,3.70
2006,01,31,03,39,3.50
2006,01,31,03,40,2.80
2006,01,31,03,41,4.70
2006,01,31,03,42,4.80
2006,01,31,03,43,3.50
2006,01,31,03,44,2.90
2006,01,31,03,45,2.20
2006,01,31,03,46,1.60
2006,01,31,03,47,1.90
2006,01,31,03,48,2.20
2006,01,31,03,49,0.10
2006,01,31,03,50,0.00
2006,01,31,03,51,0.00
2006,01,31,03,52,0.00
2006,01,31,03,53,0.10
2006,01,31,03,54,0.00
2006,01,31,03,55,0.00
2006,01,31,03,56,0.30
2006,01,31,03,57,1.50
2006,01,31,03,58,1.90
2006,01,31,03,59,0.10
2006,01,31,04,00,0.80
2006,01,31,04,01,0.60
2006,01,31,04,02,0.10
2006,01,31,04,03,0.00
2006,01,31,04,04,0.00
2006,01,31,04,05,0.00
2006,01,31,04,06,0.00
2006,01,31,04,07,0.00
2006,01,31,04,08,0.00
2006,01,31,04,09,0.00
2006,01,31,04,10,0.00
2006,01,31,04,11,0.00
2006,01,31,04,12,0.00
2006,01,31,04,13,0.20
2006,01,31,04,14,0.00
2006,01,31,04,15,0.00
2006,01,31,04,16,0.00
2006,01,31,04,17,0.00
2006,01,31,04,18,0.00
2006,01,31,04,19,0.00
2006,01,31,04,20,0.00
2006,01,31,04,21,0.00
2006,01,31,04,22,0.00
2006,01,31,04,23,0.00
2006,01,31,04,24,0.00
2006,01,31,04,25,0.00
2006,01,31,04,26,0.00
2006,01,31,04,27,0.00
2006,01,31,04,28,0.10
2006,01,31,04,29,0.00
2006,01,31,04,30,0.00
2006,01,31,04,31,0.10
2006,01,31,04,32,0.00
2006,01,31,04,33,0.10
2006,01,31,04,34,0.50
2006,01,31,04,35,0.30
2006,01,31,04,36,0.00
2006,01,31,04,37,0.00
2006,01,31,04,38,0.40
2006,01,31,04,39,0.40
2006,01,31,04,40,1.50
2006,01,31,04,41,2.00
2006,01,31,04,42,0.00
2006,01,31,04,43,0.50
2006,01,31,04,44,1.30
2006,01,31,04,45,1.10
2006,01,31,04,46,0.70
2006,01,31,04,47,1.10
2006,01,31,04,48,1.80
2006,01,31,04,49,1.90
2006,01,31,04,50,2.70
2006,01,31,04,51,1.50
2006,01,31,04,52,0.90
2006,01,31,04,53,1.90
2006,01,31,04,54,2.60
2006,01,31,04,55,2.20
2006,01,31,04,56,2.40
2006,01,31,04,57,2.60
2006,01,31,04,58,0.60
2006,01,31,04,59,0.00
2006,01,31,05,00,0.40
2006,01,31,05,01,0.00
2006,01,31,05,02,1.30
2006,01,31,05,03,1.30
2006,01,31,05,04,0.80
2006,01,31,05,05,0.70
2006,01,31,05,06,0.10
2006,01,31,05,07,0.60
2006,01,31,05,08,1.60
2006,01,31,05,09,0.20
2006,01,31,05,10,0.70
2006,01,31,05,11,0.90
2006,01,31,05,12,0.20
2006,01,31,05,13,0.00
2006,01,31,05,14,0.20
2006,01,31,05,15,1.20
2006,01,31,05,16,1.40
2006,01,31,05,17,1.20
2006,01,31,05,18,1.70
2006,01,31,05,19,1.30
2006,01,31,05,20,0.90
2006,01,31,05,21,0.70
2006,01,31,05,22,0.00
2006,01,31,05,23,0.00
2006,01,31,05,24,0.00
2006,01,31,05,25,0.10
2006,01,31,05,26,0.70
2006,01,31,05,27,0.00
2006,01,31,05,28,0.00
2006,01,31,05,29,0.00
2006,01,31,05,30,0.00
2006,01,31,05,31,0.00
2006,01,31,05,32,0.00
2006,01,31,05,33,0.00
2006,01,31,05,34,0.00
2006,01,31,05,35,0.00
2006,01,31,05,36,0.00
2006,01,31,05,37,0.00
2006,01,31,05,38,0.00
2006,01,31,05,39,0.00
2006,01,31,05,40,0.20
2006,01,31,05,41,0.60
2006,01,31,05,42,0.40
2006,01,31,05,43,0.20
2006,01,31,05,44,0.00
2006,01,31,05,45,0.00
2006,01,31,05,46,0.00
2006,01,31,05,47,0.00
2006,01,31,05,48,0.00
2006,01,31,05,49,0.20
2006,01,31,05,50,3.80
2006,01,31,05,51,0.60
2006,01,31,05,52,0.60
2006,01,31,05,53,0.00
2006,01,31,05,54,0.00
2006,01,31,05,55,0.00
2006,01,31,05,56,1.40
2006,01,31,05,57,2.70
2006,01,31,05,58,0.20
2006,01,31,05,59,1.40
2006,01,31,06,00,1.30
2006,01,31,06,01,0.70
2006,01,31,06,02,0.00
2006,01,31,06,03,0.00
2006,01,31,06,04,0.00
2006,01,31,06,05,0.00
2006,01,31,06,06,0.20
2006,01,31,06,07,0.90
2006,01,31,06,08,0.70
2006,01,31,06,09,1.00
2006,01,31,06,10,0.50
2006,01,31,06,11,1.10
2006,01,31,06,12,1.20
2006,01,31,06,13,0.60
2006,01,31,06,14,0.10
2006,01,31,06,15,0.10
2006,01,31,06,16,1.40
2006,01,31,06,17,1.10
2006,01,31,06,18,0.30
2006,01,31,06,19,0.00
2006,01,31,06,20,0.20
2006,01,31,06,21,1.00
2006,01,31,06,22,0.90
2006,01,31,06,23,0.20
2006,01,31,06,24,0.20
2006,01,31,06,25,0.00
2006,01,31,06,26,0.00
2006,01,31,06,27,0.40
2006,01,31,06,28,1.40
2006,01,31,06,29,1.60
2006,01,31,06,30,0.40
2006,01,31,06,31,0.00
2006,01,31,06,32,0.00
2006,01,31,06,33,0.00
2006,01,31,06,34,0.00
2006,01,31,06,35,0.00
2006,01,31,06,36,0.00
2006,01,31,06,37,0.00
2006,01,31,06,38,0.00
2006,01,31,06,39,0.60
2006,01,31,06,40,2.60
2006,01,31,06,41,1.40
2006,01,31,06,42,1.50
2006,01,31,06,43,0.00
2006,01,31,06,44,1.40
2006,01,31,06,45,1.90
2006,01,31,06,46,2.30
2006,01,31,06,47,2.20
2006,01,31,06,48,1.30
2006,01,31,06,49,1.60
2006,01,31,06,50,1.10
2006,01,31,06,51,1.10
2006,01,31,06,52,2.80
2006,01,31,06,53,0.20
2006,01,31,06,54,0.10
2006,01,31,06,55,0.40
2006,01,31,06,56,1.20
2006,01,31,06,57,1.50
2006,01,31,06,58,1.30
2006,01,31,06,59,1.00
2006,01,31,07,00,0.30
2006,01,31,07,01,3.50
2006,01,31,07,02,0.30
2006,01,31,07,03,0.30
2006,01,31,07,04,0.10
2006,01,31,07,05,0.80
2006,01,31,07,06,1.40
2006,01,31,07,07,0.50
2006,01,31,07,08,0.00
2006,01,31,07,09,0.30
2006,01,31,07,10,1.90
2006,01,31,07,11,0.20
2006,01,31,07,12,0.20
2006,01,31,07,13,0.60
2006,01,31,07,14,1.10
2006,01,31,07,15,1.10
2006,01,31,07,16,0.90
2006,01,31,07,17,0.10
2006,01,31,07,18,0.20
2006,01,31,07,19,0.20
2006,01,31,07,20,0.00
2006,01,31,07,21,0.00
2006,01,31,07,22,0.50
2006,01,31,07,23,1.40
2006,01,31,07,24,1.60
2006,01,31,07,25,1.60
2006,01,31,07,26,1.10
2006,01,31,07,27,0.10
2006,01,31,07,28,0.00
2006,01,31,07,29,0.00
2006,01,31,07,30,0.10
2006,01,31,07,31,0.10
2006,01,31,07,32,0.00
2006,01,31,07,33,0.10
2006,01,31,07,34,0.00
2006,01,31,07,35,0.10
2006,01,31,07,36,0.40
2006,01,31,07,37,0.00
2006,01,31,07,38,0.00
2006,01,31,07,39,0.00
2006,01,31,07,40,0.10
2006,01,31,07,41,1.10
2006,01,31,07,42,0.90
2006,01,31,07,43,1.50
2006,01,31,07,44,1.30
2006,01,31,07,45,1.30
2006,01,31,07,46,1.40
2006,01,31,07,47,0.20
2006,01,31,07,48,1.50
2006,01,31,07,49,1.60
2006,01,31,07,50,1.10
2006,01,31,07,51,1.60
2006,01,31,07,52,1.60
2006,01,31,07,53,1.60
2006,01,31,07,54,1.30
2006,01,31,07,55,0.00
2006,01,31,07,56,0.00
2006,01,31,07,57,0.10
2006,01,31,07,58,0.10
2006,01,31,07,59,1.70
2006,01,31,08,00,0.70
2006,01,31,08,01,0.00
2006,01,31,08,02,0.40
2006,01,31,08,03,1.50
2006,01,31,08,04,0.60
2006,01,31,08,05,0.80
2006,01,31,08,06,1.80
2006,01,31,08,07,1.80
2006,01,31,08,08,1.20
2006,01,31,08,09,0.90
2006,01,31,08,10,0.60
2006,01,31,08,11,0.90
2006,01,31,08,12,0.70
2006,01,31,08,13,1.50
2006,01,31,08,14,1.40
2006,01,31,08,15,1.20
2006,01,31,08,16,1.40
2006,01,31,08,17,1.60
2006,01,31,08,18,0.90
2006,01,31,08,19,1.10
2006,01,31,08,20,0.90
2006,01,31,08,21,1.10
2006,01,31,08,22,1.30
2006,01,31,08,23,1.80
2006,01,31,08,24,1.10
2006,01,31,08,25,0.90
2006,01,31,08,26,0.60
2006,01,31,08,27,1.50
2006,01,31,08,28,1.60
2006,01,31,08,29,1.80
2006,01,31,08,30,2.40
2006,01,31,08,31,2.80
2006,01,31,08,32,1.40
2006,01,31,08,33,1.40
2006,01,31,08,34,3.20
2006,01,31,08,35,3.00
2006,01,31,08,36,1.80
2006,01,31,08,37,1.40
2006,01,31,08,38,2.30
2006,01,31,08,39,2.00
2006,01,31,08,40,0.60
2006,01,31,08,41,1.40
2006,01,31,08,42,1.50
2006,01,31,08,43,1.10
2006,01,31,08,44,1.20
2006,01,31,08,45,1.50
2006,01,31,08,46,1.40
2006,01,31,08,47,0.50
2006,01,31,08,48,0.40
2006,01,31,08,49,0.10
2006,01,31,08,50,0.10
2006,01,31,08,51,0.20
2006,01,31,08,52,0.10
2006,01,31,08,53,0.50
2006,01,31,08,54,0.80
2006,01,31,08,55,0.80
2006,01,31,08,56,1.10
2006,01,31,08,57,0.30
2006,01,31,08,58,0.50
2006,01,31,08,59,0.30
2006,01,31,09,00,0.10
2006,01,31,09,01,0.40
2006,01,31,09,02,0.00
2006,01,31,09,03,1.80
2006,01,31,09,04,0.50
2006,01,31,09,05,1.40
2006,01,31,09,06,0.60
2006,01,31,09,07,0.00
2006,01,31,09,08,0.80
2006,01,31,09,09,0.70
2006,01,31,09,10,1.40
2006,01,31,09,11,0.60
2006,01,31,09,12,1.50
2006,01,31,09,13,0.50
2006,01,31,09,14,2.40
2006,01,31,09,15,1.00
2006,01,31,09,16,0.80
2006,01,31,09,17,1.70
2006,01,31,09,18,2.00
2006,01,31,09,19,1.40
2006,01,31,09,20,1.10
2006,01,31,09,21,0.70
2006,01,31,09,22,0.80
2006,01,31,09,23,0.60
2006,01,31,09,24,0.90
2006,01,31,09,25,1.70
2006,01,31,09,26,0.50
2006,01,31,09,27,1.10
2006,01,31,09,28,0.50
2006,01,31,09,29,0.60
2006,01,31,09,30,0.70
2006,01,31,09,31,2.20
2006,01,31,09,32,2.30
2006,01,31,09,33,2.70
2006,01,31,09,34,2.30
2006,01,31,09,35,1.90
2006,01,31,09,36,2.50
2006,01,31,09,37,1.40
2006,01,31,09,38,1.00
2006,01,31,09,39,2.20
2006,01,31,09,40,1.70
2006,01,31,09,41,1.30
2006,01,31,09,42,0.00
2006,01,31,09,43,0.20
2006,01,31,09,44,0.50
2006,01,31,09,45,0.20
2006,01,31,09,46,2.40
2006,01,31,09,47,2.40
2006,01,31,09,48,1.20
2006,01,31,09,49,1.10
2006,01,31,09,50,0.90
2006,01,31,09,51,0.20
2006,01,31,09,52,1.00
2006,01,31,09,53,2.70
2006,01,31,09,54,1.60
2006,01,31,09,55,3.30
2006,01,31,09,56,2.80
2006,01,31,09,57,1.50
2006,01,31,09,58,1.70
2006,01,31,09,59,4.40
2006,01,31,10,00,3.90
2006,01,31,10,01,2.60
2006,01,31,10,02,1.70
2006,01,31,10,03,1.80
2006,01,31,10,04,2.50
2006,01,31,10,05,1.60
2006,01,31,10,06,1.90
2006,01,31,10,07,4.20
2006,01,31,10,08,1.60
2006,01,31,10,09,2.10
2006,01,31,10,10,2.20
2006,01,31,10,11,2.90
2006,01,31,10,12,3.20
2006,01,31,10,13,4.60
2006,01,31,10,14,2.40
2006,01,31,10,15,3.40
2006,01,31,10,16,2.10
2006,01,31,10,17,4.70
2006,01,31,10,18,4.40
2006,01,31,10,19,2.70
2006,01,31,10,20,3.40
2006,01,31,10,21,3.00
2006,01,31,10,22,2.30
2006,01,31,10,23,1.20
2006,01,31,10,24,2.40
2006,01,31,10,25,1.20
2006,01,31,10,26,0.80
2006,01,31,10,27,2.30
2006,01,31,10,28,1.80
2006,01,31,10,29,1.70
2006,01,31,10,30,2.90
2006,01,31,10,31,2.10
2006,01,31,10,32,2.80
2006,01,31,10,33,2.20
2006,01,31,10,34,4.90
2006,01,31,10,35,4.80
2006,01,31,10,36,5.40
2006,01,31,10,37,6.20
2006,01,31,10,38,3.90
2006,01,31,10,39,3.20
2006,01,31,10,40,2.90
2006,01,31,10,41,2.30
2006,01,31,10,42,2.60
2006,01,31,10,43,4.80
2006,01,31,10,44,3.80
2006,01,31,10,45,4.40
2006,01,31,10,46,3.40
2006,01,31,10,47,3.50
2006,01,31,10,48,3.30
2006,01,31,10,49,2.30
2006,01,31,10,50,3.90
2006,01,31,10,51,5.30
2006,01,31,10,52,6.80
2006,01,31,10,53,6.30
2006,01,31,10,54,5.50
2006,01,31,10,55,6.70
2006,01,31,10,56,4.80
2006,01,31,10,57,4.50
2006,01,31,10,58,5.20
2006,01,31,10,59,4.00
2006,01,31,11,00,4.90
2006,01,31,11,01,5.00
2006,01,31,11,02,2.70
2006,01,31,11,03,2.30
2006,01,31,11,04,2.20
2006,01,31,11,05,2.10
2006,01,31,11,06,3.40
2006,01,31,11,07,3.10
2006,01,31,11,08,6.90
2006,01,31,11,09,7.30
2006,01,31,11,10,5.90
2006,01,31,11,11,9.90
2006,01,31,11,12,7.50
2006,01,31,11,13,5.60
2006,01,31,11,14,6.20
2006,01,31,11,15,4.40
2006,01,31,11,16,5.60
2006,01,31,11,17,6.90
2006,01,31,11,18,4.10
2006,01,31,11,19,5.80
2006,01,31,11,20,5.10
2006,01,31,11,21,4.00
2006,01,31,11,22,6.40
2006,01,31,11,23,7.10
2006,01,31,11,24,2.90
2006,01,31,11,25,2.90
2006,01,31,11,26,2.90
2006,01,31,11,27,3.30
2006,01,31,11,28,3.00
2006,01,31,11,29,3.50
2006,01,31,11,30,4.50
2006,01,31,11,31,3.60
2006,01,31,11,32,3.70
2006,01,31,11,33,5.60
2006,01,31,11,34,3.80
2006,01,31,11,35,3.50
2006,01,31,11,36,3.50
2006,01,31,11,37,2.90
2006,01,31,11,38,3.00
2006,01,31,11,39,2.60
2006,01,31,11,40,5.50
2006,01,31,11,41,6.80
2006,01,31,11,42,1.50
2006,01,31,11,43,2.90
2006,01,31,11,44,3.60
2006,01,31,11,45,5.50
2006,01,31,11,46,2.50
2006,01,31,11,47,2.50
2006,01,31,11,48,2.30
2006,01,31,11,49,1.50
2006,01,31,11,50,1.80
2006,01,31,11,51,3.00
2006,01,31,11,52,1.70
2006,01,31,11,53,4.70
2006,01,31,11,54,3.10
2006,01,31,11,55,2.30
2006,01,31,11,56,2.50
2006,01,31,11,57,5.60
2006,01,31,11,58,5.60
2006,01,31,11,59,4.40
2006,01,31,12,00,5.00
2006,01,31,12,01,5.30
2006,01,31,12,02,7.00
2006,01,31,12,03,8.10
2006,01,31,12,04,3.00
2006,01,31,12,05,3.60
2006,01,31,12,06,3.70
2006,01,31,12,07,2.40
2006,01,31,12,08,5.90
2006,01,31,12,09,6.00
2006,01,31,12,10,3.70
2006,01,31,12,11,4.10
2006,01,31,12,12,4.10
2006,01,31,12,13,2.10
2006,01,31,12,14,1.40
2006,01,31,12,15,0.50
2006,01,31,12,16,4.20
2006,01,31,12,17,3.50
2006,01,31,12,18,4.70
2006,01,31,12,19,4.80
2006,01,31,12,20,3.70
2006,01,31,12,21,2.70
2006,01,31,12,22,4.10
2006,01,31,12,23,2.90
2006,01,31,12,24,4.00
2006,01,31,12,25,2.90
2006,01,31,12,26,1.40
2006,01,31,12,27,1.30
2006,01,31,12,28,1.00
2006,01,31,12,29,2.20
2006,01,31,12,30,1.00
2006,01,31,12,31,2.00
2006,01,31,12,32,1.50
2006,01,31,12,33,1.50
2006,01,31,12,34,5.60
2006,01,31,12,35,5.60
2006,01,31,12,36,3.10
2006,01,31,12,37,1.70
2006,01,31,12,38,2.70
2006,01,31,12,39,3.20
2006,01,31,12,40,2.60
2006,01,31,12,41,3.30
2006,01,31,12,42,2.10
2006,01,31,12,43,2.00
2006,01,31,12,44,0.20
2006,01,31,12,45,1.60
2006,01,31,12,46,3.00
2006,01,31,12,47,1.80
2006,01,31,12,48,1.50
2006,01,31,12,49,1.10
2006,01,31,12,50,1.10
2006,01,31,12,51,0.70
2006,01,31,12,52,1.10
2006,01,31,12,53,2.70
2006,01,31,12,54,3.50
2006,01,31,12,55,0.30
2006,01,31,12,56,0.00
2006,01,31,12,57,0.80
2006,01,31,12,58,0.80
2006,01,31,12,59,0.10
2006,01,31,13,00,0.70
2006,01,31,13,01,1.20
2006,01,31,13,02,1.30
2006,01,31,13,03,1.90
2006,01,31,13,04,2.70
2006,01,31,13,05,1.00
2006,01,31,13,06,1.50
2006,01,31,13,07,1.70
2006,01,31,13,08,0.60
2006,01,31,13,09,2.10
2006,01,31,13,10,2.70
2006,01,31,13,11,3.10
2006,01,31,13,12,2.80
2006,01,31,13,13,1.80
2006,01,31,13,14,1.60
2006,01,31,13,15,2.70
2006,01,31,13,16,1.40
2006,01,31,13,17,0.00
2006,01,31,13,18,1.70
2006,01,31,13,19,1.30
2006,01,31,13,20,1.10
2006,01,31,13,21,1.10
2006,01,31,13,22,1.20
2006,01,31,13,23,1.30
2006,01,31,13,24,1.10
2006,01,31,13,25,1.70
2006,01,31,13,26,0.60
2006,01,31,13,27,0.50
2006,01,31,13,28,0.90
2006,01,31,13,29,1.50
2006,01,31,13,30,0.20
2006,01,31,13,31,0.90
2006,01,31,13,32,2.00
2006,01,31,13,33,2.40
2006,01,31,13,34,3.30
2006,01,31,13,35,4.80
2006,01,31,13,36,4.80
2006,01,31,13,37,3.30
2006,01,31,13,38,3.10
2006,01,31,13,39,3.60
2006,01,31,13,40,2.70
2006,01,31,13,41,3.30
2006,01,31,13,42,5.00
2006,01,31,13,43,8.40
2006,01,31,13,44,5.80
2006,01,31,13,45,5.80
2006,01,31,13,46,7.30
2006,01,31,13,47,9.10
2006,01,31,13,48,7.80
2006,01,31,13,49,4.60
2006,01,31,13,50,7.30
2006,01,31,13,51,7.80
2006,01,31,13,52,9.70
2006,01,31,13,53,5.90
2006,01,31,13,54,6.40
2006,01,31,13,55,10.90
2006,01,31,13,56,5.30
2006,01,31,13,57,9.50
2006,01,31,13,58,6.70
2006,01,31,13,59,6.40
2006,01,31,14,00,11.30
2006,01,31,14,01,9.70
2006,01,31,14,02,7.10
2006,01,31,14,03,14.90
2006,01,31,14,04,8.50
2006,01,31,14,05,11.90
2006,01,31,14,06,13.90
2006,01,31,14,07,8.30
2006,01,31,14,08,3.50
2006,01,31,14,09,10.40
2006,01,31,14,10,12.10
2006,01,31,14,11,15.40
2006,01,31,14,12,16.60
2006,01,31,14,13,10.00
2006,01,31,14,14,9.80
2006,01,31,14,15,15.70
2006,01,31,14,16,16.10
2006,01,31,14,17,21.80
2006,01,31,14,18,19.80
2006,01,31,14,19,16.30
2006,01,31,14,20,17.50
2006,01,31,14,21,19.10
2006,01,31,14,22,15.30
2006,01,31,14,23,14.70
2006,01,31,14,24,21.60
2006,01,31,14,25,30.20
2006,01,31,14,26,21.40
2006,01,31,14,27,27.80
2006,01,31,14,28,22.80
2006,01,31,14,29,13.60
2006,01,31,14,30,19.80
2006,01,31,14,31,18.10
2006,01,31,14,32,22.40
2006,01,31,14,33,22.00
2006,01,31,14,34,19.50
2006,01,31,14,35,19.70
2006,01,31,14,36,10.10
2006,01,31,14,37,25.80
2006,01,31,14,38,22.10
2006,01,31,14,39,26.40
2006,01,31,14,40,18.00
2006,01,31,14,41,19.20
2006,01,31,14,42,17.70
2006,01,31,14,43,21.10
2006,01,31,14,44,26.70
2006,01,31,14,45,22.60
2006,01,31,14,46,26.40
2006,01,31,14,47,27.10
2006,01,31,14,48,18.60
2006,01,31,14,49,21.20
2006,01,31,14,50,15.20
2006,01,31,14,51,12.30
2006,01,31,14,52,19.10
2006,01,31,14,53,19.30
2006,01,31,14,54,18.60
2006,01,31,14,55,28.20
2006,01,31,14,56,26.50
2006,01,31,14,57,26.40
2006,01,31,14,58,21.10
2006,01,31,14,59,22.90
2006,01,31,15,00,19.10
2006,01,31,15,01,26.50
2006,01,31,15,02,22.50
2006,01,31,15,03,25.10
2006,01,31,15,04,20.10
2006,01,31,15,05,22.50
2006,01,31,15,06,22.90
2006,01,31,15,07,25.30
2006,01,31,15,08,24.50
2006,01,31,15,09,18.70
2006,01,31,15,12,13.10
2006,01,31,15,13,15.60
2006,01,31,15,14,28.50
2006,01,31,15,15,17.60
2006,01,31,15,16,22.20
2006,01,31,15,17,23.60
2006,01,31,15,18,21.00
2006,01,31,15,19,20.20
2006,01,31,15,20,28.10
2006,01,31,15,21,18.90
2006,01,31,15,22,27.20
2006,01,31,15,23,22.20
2006,01,31,15,24,24.10
2006,01,31,15,25,28.70
2006,01,31,15,26,18.30
2006,01,31,15,27,19.70
2006,01,31,15,28,26.20
2006,01,31,15,29,21.70
2006,01,31,15,30,18.30
2006,01,31,15,31,22.80
2006,01,31,15,32,18.00
2006,01,31,15,33,23.00
2006,01,31,15,34,21.30
2006,01,31,15,35,23.90
2006,01,31,15,36,13.80
2006,01,31,15,37,22.90
2006,01,31,15,38,17.90
2006,01,31,15,39,16.00
2006,01,31,15,40,22.10
2006,01,31,15,41,23.30
2006,01,31,15,42,23.30
2006,01,31,15,43,23.60
2006,01,31,15,44,22.10
2006,01,31,15,45,23.70
2006,01,31,15,46,22.90
2006,01,31,15,47,24.50
2006,01,31,15,48,18.10
2006,01,31,15,49,23.30
2006,01,31,15,50,28.20
2006,01,31,15,51,28.10
2006,01,31,15,52,22.20
2006,01,31,15,53,22.50
2006,01,31,15,54,18.10
2006,01,31,15,55,20.20
2006,01,31,15,56,20.00
2006,01,31,15,57,22.40
2006,01,31,15,58,17.50
2006,01,31,15,59,24.10
2006,01,31,16,00,43.50
2006,01,31,16,01,53.10
2006,01,31,16,02,53.10
2006,01,31,16,03,53.10
2006,01,31,16,04,27.50
2006,01,31,16,05,25.70
2006,01,31,16,06,25.70
2006,01,31,16,07,25.70
2006,01,31,16,08,28.10
2006,01,31,16,09,24.90
2006,01,31,16,10,22.80
2006,01,31,16,11,22.80
2006,01,31,16,12,20.90
2006,01,31,16,13,24.70
2006,01,31,16,14,22.90
2006,01,31,16,15,22.10
2006,01,31,16,16,34.70
2006,01,31,16,17,23.30
2006,01,31,16,18,23.10
2006,01,31,16,19,23.60
2006,01,31,16,20,25.40
2006,01,31,16,21,33.30
2006,01,31,16,22,28.20
2006,01,31,16,23,23.10
2006,01,31,16,24,23.20
2006,01,31,16,25,22.70
2006,01,31,16,26,21.80
2006,01,31,16,27,18.40
2006,01,31,16,28,22.60
2006,01,31,16,29,19.80
2006,01,31,16,30,30.70
2006,01,31,16,31,23.70
2006,01,31,16,32,21.20
2006,01,31,16,33,19.90
2006,01,31,16,34,25.80
2006,01,31,16,35,15.80
2006,01,31,16,36,25.50
2006,01,31,16,37,28.50
2006,01,31,16,38,15.40
2006,01,31,16,39,26.00
2006,01,31,16,40,16.30
2006,01,31,16,41,17.90
2006,01,31,16,42,17.70
2006,01,31,16,43,17.70
2006,01,31,16,44,17.70
2006,01,31,16,45,17.70
2006,01,31,16,46,17.70
2006,01,31,16,47,17.70
2006,01,31,16,48,17.70
2006,01,31,16,49,17.70
2006,01,31,16,50,17.70
2006,01,31,16,51,17.70
2006,01,31,17,42,19.10
2006,01,31,17,43,27.50
2006,01,31,17,44,20.40
2006,01,31,17,45,16.60
2006,01,31,17,46,22.10
2006,01,31,17,47,15.70
2006,01,31,17,48,11.70
2006,01,31,17,49,19.30
2006,01,31,17,50,15.90
2006,01,31,17,51,16.30
2006,01,31,17,52,10.00
2006,01,31,17,53,10.80
2006,01,31,17,54,18.60
2006,01,31,17,55,14.80
2006,01,31,17,56,20.70
2006,01,31,17,57,17.00
2006,01,31,17,58,22.80
2006,01,31,17,59,11.30
2006,01,31,18,00,12.90
2006,01,31,18,01,17.00
2006,01,31,18,02,23.70
2006,01,31,18,03,16.60
2006,01,31,18,04,14.00
2006,01,31,18,05,16.70
2006,01,31,18,06,20.90
2006,01,31,18,07,14.30
2006,01,31,18,08,8.30
2006,01,31,18,09,13.60
2006,01,31,18,10,17.40
2006,01,31,18,11,18.80
2006,01,31,18,12,14.80
2006,01,31,18,13,14.30
2006,01,31,18,14,10.10
2006,01,31,18,15,13.20
2006,01,31,18,16,12.80
2006,01,31,18,17,15.90
2006,01,31,18,18,14.10
2006,01,31,18,19,14.70
2006,01,31,18,20,16.20
2006,01,31,18,21,11.70
2006,01,31,18,22,9.60
2006,01,31,18,23,9.60
2006,01,31,18,24,10.80
2006,01,31,18,25,15.80
2006,01,31,18,26,22.80
2006,01,31,18,27,13.30
2006,01,31,18,28,20.70
2006,01,31,18,29,16.40
2006,01,31,18,30,18.70
2006,01,31,18,31,15.10
2006,01,31,18,32,5.90
2006,01,31,18,33,10.40
2006,01,31,18,34,16.70
2006,01,31,18,35,14.60
2006,01,31,18,36,8.40
2006,01,31,18,37,12.10
2006,01,31,18,38,17.00
2006,01,31,18,39,11.30
2006,01,31,18,40,7.70
2006,01,31,18,41,13.40
2006,01,31,18,42,8.20
2006,01,31,18,43,7.80
2006,01,31,18,44,10.50
2006,01,31,18,45,7.20
2006,01,31,18,46,9.30
2006,01,31,18,47,13.50
2006,01,31,18,48,18.20